sat.trackr.live / text

‹ back to catalog

STARLINK-37760

NORAD 69222 · 2026-115M

PAYLOAD ACTIVE UNKNOWN

§ Identity

Operator
Country
US
Launch date
2026-05-26
Launch site
AFWTR
Launch vehicle
Mass (kg)
RCS (m²)

Purposes: comms

External: N2YO · Heavens-Above · Gunter

§ Orbital elements

Epoch: 2026-09-19T23:59:16.451808Z

Period
93.91 min
Inclination
97.2829°
Eccentricity
0.0001715
Mean motion
15.33448496 rev/d
Perigee alt
464.4 km
Apogee alt
466.7 km
Semi-major
6,843.7 km
B*
3.7184e-4
RAAN
279.0999°
Arg perigee
95.7833°
Mean anomaly
264.3606°
Rev number
1,921

§ Raw data

STARLINK-377601 69222U 26115M   26262.99949597  .00011950  00000+0  37184-3 0  99962 69222  97.2829 279.0999 0001715  95.7833 264.3606 15.33448496 19211

JSON: /api/v1/satellites/69222 · /tle

For live sub-satellite position, see the globe view (requires WebGL).

§ Visibility from observer

Set your observer location to see the next 7 days of passes ≥ 10°. The values pass through the URL so the page stays shareable.

No JS? Fill the form by hand. The geolocation button needs JavaScript.